TimeCST,TemperatureF,Dew PointF,Humidity,Sea Level PressureIn,VisibilityMPH,Wind Direction,Wind SpeedMPH,Gust SpeedMPH,PrecipitationIn,Events,Conditions,WindDirDegrees,DateUTC
12:14 AM,26.6,24.8,93,29.71,10.0,South,4.6,-,N/A,,Clear,170,2013-01-19 06:14:00
12:34 AM,28.4,24.8,86,29.71,10.0,SE,3.5,-,N/A,,Clear,140,2013-01-19 06:34:00
12:54 AM,26.6,24.8,93,29.71,10.0,SSE,3.5,-,N/A,,Clear,150,2013-01-19 06:54:00
1:14 AM,28.4,24.8,86,29.70,10.0,SE,3.5,-,N/A,,Clear,140,2013-01-19 07:14:00
1:34 AM,26.6,24.8,93,29.70,10.0,South,3.5,-,N/A,,Clear,180,2013-01-19 07:34:00
1:54 AM,28.4,24.8,86,29.69,10.0,SW,3.5,-,N/A,,Clear,220,2013-01-19 07:54:00
2:13 AM,32.0,26.6,80,29.69,10.0,SSW,4.6,-,N/A,,Clear,210,2013-01-19 08:13:00
2:34 AM,30.2,26.6,86,29.70,10.0,West,5.8,-,N/A,,Scattered Clouds,270,2013-01-19 08:34:00
2:54 AM,30.2,26.6,86,29.71,10.0,West,5.8,-,N/A,,Clear,280,2013-01-19 08:54:00
3:14 AM,32.0,26.6,80,29.70,10.0,NW,3.5,-,N/A,,Clear,320,2013-01-19 09:14:00
3:34 AM,32.0,26.6,80,29.70,10.0,WNW,8.1,-,N/A,,Clear,290,2013-01-19 09:34:00
3:54 AM,33.8,24.8,70,29.69,10.0,West,4.6,-,N/A,,Clear,260,2013-01-19 09:54:00
4:14 AM,30.2,24.8,80,29.71,10.0,WNW,3.5,-,N/A,,Clear,290,2013-01-19 10:14:00
4:34 AM,30.2,24.8,80,29.71,10.0,West,4.6,-,N/A,,Clear,280,2013-01-19 10:34:00
4:54 AM,32.0,24.8,75,29.69,10.0,WSW,4.6,-,N/A,,Clear,240,2013-01-19 10:54:00
5:14 AM,30.2,24.8,80,29.69,10.0,SW,4.6,-,N/A,,Clear,230,2013-01-19 11:14:00
5:34 AM,30.2,24.8,80,29.70,10.0,SW,6.9,-,N/A,,Mostly Cloudy,230,2013-01-19 11:34:00
5:54 AM,30.2,24.8,80,29.71,10.0,WSW,6.9,-,N/A,,Scattered Clouds,250,2013-01-19 11:54:00
6:14 AM,30.2,24.8,80,29.72,10.0,West,8.1,-,N/A,,Mostly Cloudy,270,2013-01-19 12:14:00
6:34 AM,32.0,26.6,80,29.73,10.0,West,6.9,-,N/A,,Overcast,280,2013-01-19 12:34:00
6:54 AM,33.8,26.6,75,29.74,10.0,WNW,11.5,-,N/A,,Scattered Clouds,300,2013-01-19 12:54:00
7:14 AM,35.6,26.6,70,29.74,10.0,NW,13.8,-,N/A,,Mostly Cloudy,310,2013-01-19 13:14:00
7:34 AM,35.6,26.6,70,29.75,10.0,WNW,17.3,-,N/A,,Overcast,300,2013-01-19 13:34:00
7:54 AM,37.4,28.4,70,29.76,10.0,WNW,13.8,19.6,N/A,,Overcast,300,2013-01-19 13:54:00
8:13 AM,35.6,26.6,70,29.76,10.0,WNW,12.7,18.4,N/A,,Mostly Cloudy,290,2013-01-19 14:13:00
8:34 AM,35.6,28.4,75,29.77,10.0,WNW,12.7,-,N/A,,Mostly Cloudy,290,2013-01-19 14:34:00
8:54 AM,35.6,28.4,75,29.79,10.0,WNW,11.5,-,N/A,,Mostly Cloudy,300,2013-01-19 14:54:00
9:14 AM,37.4,28.4,70,29.81,10.0,NW,17.3,23.0,N/A,,Scattered Clouds,310,2013-01-19 15:14:00
9:34 AM,37.4,28.4,70,29.82,10.0,NW,17.3,23.0,N/A,,Clear,310,2013-01-19 15:34:00
9:54 AM,35.6,28.4,75,29.83,10.0,WNW,13.8,19.6,N/A,,Clear,300,2013-01-19 15:54:00
10:14 AM,37.4,28.4,70,29.84,10.0,WNW,10.4,-,N/A,,Scattered Clouds,290,2013-01-19 16:14:00
10:34 AM,37.4,28.4,70,29.85,10.0,West,12.7,-,N/A,,Scattered Clouds,280,2013-01-19 16:34:00
10:53 AM,37.4,28.4,70,29.85,10.0,WNW,15.0,20.7,N/A,,Mostly Cloudy,300,2013-01-19 16:53:00
11:14 AM,37.4,28.4,70,29.86,10.0,NW,19.6,25.3,N/A,,Overcast,310,2013-01-19 17:14:00
11:34 AM,37.4,28.4,70,29.85,10.0,NW,17.3,31.1,N/A,,Overcast,310,2013-01-19 17:34:00
11:53 AM,35.6,26.6,70,29.87,10.0,NW,25.3,35.7,N/A,,Overcast,320,2013-01-19 17:53:00
12:14 PM,28.4,24.8,86,29.90,10.0,North,32.2,39.1,N/A,,Overcast,350,2013-01-19 18:14:00
12:34 PM,26.6,21.2,80,29.92,10.0,NNW,27.6,36.8,N/A,,Overcast,340,2013-01-19 18:34:00
12:54 PM,24.8,19.4,80,29.94,10.0,NNW,19.6,35.7,N/A,,Overcast,340,2013-01-19 18:54:00
1:34 PM,21.2,10.4,63,29.98,10.0,NW,27.6,40.3,N/A,,Scattered Clouds,320,2013-01-19 19:34:00
1:54 PM,19.4,8.6,63,30.00,10.0,NW,24.2,40.3,N/A,,Scattered Clouds,320,2013-01-19 19:54:00
2:14 PM,17.6,6.8,63,30.02,10.0,NW,26.5,42.6,N/A,Snow,Light Snow,310,2013-01-19 20:14:00
2:34 PM,17.6,6.8,63,30.02,10.0,NW,28.8,41.4,N/A,,Mostly Cloudy,320,2013-01-19 20:34:00
2:54 PM,15.8,5.0,62,30.04,5.0,NNW,29.9,46.0,N/A,,Haze,330,2013-01-19 20:54:00
3:14 PM,14.0,3.2,62,30.06,10.0,NW,25.3,35.7,N/A,,Scattered Clouds,320,2013-01-19 21:14:00
3:34 PM,14.0,3.2,62,30.08,10.0,NW,24.2,36.8,N/A,,Scattered Clouds,320,2013-01-19 21:34:00
3:54 PM,12.2,3.2,67,30.09,7.0,NW,29.9,39.1,N/A,,Mostly Cloudy,310,2013-01-19 21:54:00
4:14 PM,12.2,3.2,67,30.11,5.0,NW,26.5,39.1,N/A,,Haze,310,2013-01-19 22:14:00
4:34 PM,10.4,1.4,67,30.14,4.0,NW,32.2,41.4,N/A,,Haze,320,2013-01-19 22:34:00
4:54 PM,8.6,-0.4,67,30.16,7.0,NW,24.2,36.8,N/A,,Mostly Cloudy,320,2013-01-19 22:54:00
5:14 PM,8.6,-2.2,62,30.18,10.0,NW,24.2,36.8,N/A,,Scattered Clouds,320,2013-01-19 23:14:00
5:34 PM,6.8,-0.4,72,30.19,10.0,NW,17.3,34.5,N/A,,Scattered Clouds,310,2013-01-19 23:34:00
5:54 PM,6.8,-2.2,67,30.21,10.0,NW,21.9,36.8,N/A,,Scattered Clouds,320,2013-01-19 23:54:00
6:14 PM,6.8,-0.4,72,30.22,7.0,NW,21.9,31.1,N/A,,Mostly Cloudy,320,2013-01-20 00:14:00
6:34 PM,5.0,-0.4,78,30.23,3.0,NNW,23.0,33.4,N/A,,Haze,330,2013-01-20 00:34:00
6:53 PM,5.0,-2.2,72,30.24,7.0,NNW,26.5,31.1,N/A,,Mostly Cloudy,330,2013-01-20 00:53:00
7:14 PM,5.0,-2.2,72,30.26,10.0,NNW,17.3,31.1,N/A,,Mostly Cloudy,330,2013-01-20 01:14:00
7:34 PM,3.2,-2.2,78,30.27,7.0,NNW,20.7,28.8,N/A,,Mostly Cloudy,330,2013-01-20 01:34:00
7:54 PM,3.2,-5.8,66,30.28,10.0,NW,24.2,29.9,N/A,,Scattered Clouds,320,2013-01-20 01:54:00
8:14 PM,3.2,-5.8,66,30.29,10.0,NW,23.0,33.4,N/A,,Scattered Clouds,320,2013-01-20 02:14:00
8:34 PM,3.2,-5.8,66,30.30,10.0,NNW,18.4,27.6,N/A,,Scattered Clouds,330,2013-01-20 02:34:00
8:54 PM,1.4,-5.8,72,30.30,10.0,NNW,18.4,27.6,N/A,,Scattered Clouds,330,2013-01-20 02:54:00
9:14 PM,1.4,-5.8,72,30.30,10.0,NW,16.1,19.6,N/A,,Scattered Clouds,320,2013-01-20 03:14:00
9:34 PM,1.4,-7.6,66,30.29,10.0,NW,16.1,27.6,N/A,,Clear,320,2013-01-20 03:34:00
9:54 PM,1.4,-5.8,72,30.30,10.0,NW,18.4,24.2,N/A,,Clear,310,2013-01-20 03:54:00
10:14 PM,1.4,-7.6,66,30.33,10.0,NW,16.1,20.7,N/A,,Scattered Clouds,320,2013-01-20 04:14:00
10:34 PM,1.4,-7.6,66,30.33,10.0,NW,16.1,24.2,N/A,,Scattered Clouds,320,2013-01-20 04:34:00
10:54 PM,-0.4,-7.6,72,30.32,10.0,NNW,16.1,24.2,N/A,,Clear,330,2013-01-20 04:54:00
11:14 PM,-0.4,-7.6,72,30.32,10.0,NNW,17.3,23.0,N/A,,Clear,330,2013-01-20 05:14:00
11:34 PM,-0.4,-9.4,66,30.32,10.0,NNW,16.1,19.6,N/A,,Clear,330,2013-01-20 05:34:00
11:53 PM,-0.4,-9.4,66,30.32,10.0,NNW,13.8,-,N/A,,Clear,330,2013-01-20 05:53:00